DW5522 Weather Reports


time (UTC)temp
C
wind
direction
speed
KPH
gust
KPH
rain 1hr
cm
rain 24hr
cm
rain mn
cm
humidity
%
barometer
mb
20260502214212 13 123 0.0 1.6 0.00 0.56 0.56 90 12.8
20260502214210 13 123 0.0 1.6 0.00 0.58 0.58 92 1013.1
20260502213212 13 119 1.6 4.8 0.00 0.56 0.56 90 12.9
20260502213210 13 119 1.6 1.6 0.00 0.58 0.58 92 1013.1
20260502212213 13 160 1.6 3.2 0.00 0.56 0.56 91 12.9
20260502212210 13 160 0.0 3.2 0.00 0.58 0.58 93 1013.2
20260502211403 13 157 6.4 8.0 0.00 0.58 0.58 93 1013.2
20260502211212 13 159 6.4 8.0 0.00 0.56 0.56 91 12.9
20260502211210 13 159 6.4 6.4 0.00 0.58 0.58 93 1013.2
20260502211004 13 136 0.0 3.2 0.00 0.58 0.58 93 1013.2
20260502210804 13 135 1.6 4.8 0.00 0.58 0.58 93 1013.2
20260502210403 13 144 0.0 4.8 0.00 0.58 0.58 93 1013.1
20260502210302 13 144 1.6 4.8 0.00 0.58 0.58 93 1013.1
20260502210004 13 144 0.0 3.2 0.00 0.58 0.58 93 1013.1
20260502205803 13 135 1.6 6.4 0.00 0.58 0.58 93 1013.1
20260502205402 13 144 3.2 6.4 0.00 0.58 0.58 93 1013.1
20260502205212 13 146 1.6 8.0 0.00 0.56 0.56 91 12.9
20260502205210 13 146 1.6 8.0 0.00 0.58 0.58 93 1013.2
20260502205202 13 146 0.0 6.4 0.00 0.58 0.58 93 1013.1
20260502205005 13 202 3.2 8.0 0.00 0.58 0.58 93 1013.3
20260502204602 13 144 1.6 3.2 0.00 0.58 0.58 93 1013.1
20260502204302 13 144 0.0 3.2 0.00 0.58 0.58 93 1013.1
20260502204212 13 144 1.6 4.8 0.00 0.56 0.56 91 12.7
20260502204210 13 144 1.6 3.2 0.00 0.58 0.58 93 1013.1
20260502204203 13 135 3.2 8.0 0.00 0.58 0.58 93 1013.1
20260502203903 13 144 1.6 8.0 0.00 0.58 0.58 93 1013.1
20260502203803 13 144 3.2 8.0 0.00 0.58 0.58 93 1013.3
20260502203702 14 46 0.0 1.6 0.00 0.58 0.58 93 1013.4
20260502203403 14 46 1.6 1.6 0.00 0.58 0.58 93 1013.4
20260502203211 13 46 1.6 1.6 0.00 0.58 0.58 93 1013.4
20260502203104 14 46 0.0 3.2 0.00 0.58 0.58 93 1013.4
20260502203006 14 45 1.6 3.2 0.00 0.58 0.58 93 1013.4
20260502202802 14 46 1.6 3.2 0.00 0.58 0.58 93 1013.4
20260502202603 14 46 0.0 3.2 0.00 0.58 0.58 93 1013.4
20260502202403 14 46 3.2 3.2 0.00 0.58 0.58 93 1013.4
20260502202211 14 46 3.2 3.2 0.00 0.58 0.58 93 1013.4
20260502202203 14 46 1.6 3.2 0.00 0.58 0.58 93 1013.4
20260502202004 14 46 3.2 3.2 0.00 0.58 0.58 93 1013.4
20260502201802 14 46 0.0 3.2 0.00 0.58 0.58 93 1013.4
20260502201403 14 46 0.0 1.6 0.00 0.58 0.58 93 1013.5
20260502201203 14 46 0.0 1.6 0.03 0.58 0.58 93 1013.5
20260502200903 14 46 0.0 1.6 0.05 0.58 0.58 93 1013.5
20260502200703 14 46 1.6 3.2 0.05 0.58 0.58 93 1013.4
20260502200403 14 46 1.6 3.2 0.05 0.58 0.58 93 1013.5
20260502200210 14 46 1.6 3.2 0.05 0.58 0.58 93 1013.5
20260502195803 14 46 3.2 4.8 0.05 0.58 0.58 93 1013.6
20260502195604 14 45 3.2 3.2 0.05 0.58 0.58 93 1013.6
20260502195403 14 45 1.6 3.2 0.05 0.58 0.58 93 1013.6
20260502195212 14 45 3.2 4.8 0.05 0.58 0.58 92 1013.6
20260502195210 14 45 3.2 4.8 0.05 0.58 0.58 92 1013.6
20260502195103 14 45 0.0 4.8 0.05 0.58 0.58 92 1013.6
20260502194803 14 42 3.2 6.4 0.05 0.58 0.58 92 1013.6
20260502194603 14 41 3.2 6.4 0.05 0.58 0.58 92 1013.7
20260502194504 14 24 0.0 4.8 0.05 0.58 0.58 92 1013.7
20260502194211 14 24 1.6 4.8 0.05 0.58 0.58 92 1013.8
20260502194203 14 22 1.6 4.8 0.05 0.58 0.58 92 1013.9
20260502194103 14 24 3.2 4.8 0.05 0.58 0.58 92 1013.9
20260502193802 14 24 1.6 4.8 0.05 0.58 0.58 92 1013.9
20260502193403 14 24 1.6 4.8 0.05 0.58 0.58 92 1013.8
20260502193210 14 22 1.6 3.2 0.05 0.58 0.58 92 1013.8
20260502193203 14 22 3.2 4.8 0.05 0.58 0.58 92 1013.8
20260502192213 14 24 3.2 4.8 0.08 0.58 0.58 91 1013.7
20260502192210 14 24 1.6 4.8 0.08 0.56 0.56 89 13.5
20260502191210 14 314 1.6 12.9 0.13 0.53 0.53 89 13.7
20260502190210 15 305 6.4 12.9 0.13 0.53 0.53 92 1014.5
20260502185210 15 330 3.2 3.2 0.15 0.53 0.53 92 1014.0
20260502184210 14 330 0.0 6.4 0.20 0.53 0.53 91 1013.9
20260502183211 15 342 1.6 4.8 0.41 0.53 0.53 90 1013.7
20260502182210 15 54 1.6 4.8 0.36 0.48 0.48 86 13.2
20260502181802 15 157 1.6 3.2 0.36 0.46 0.46 89 1013.9
20260502181505 15 159 0.0 3.2 0.36 0.46 0.46 89 1013.9
20260502181212 15 159 1.6 3.2 0.36 0.46 0.46 89 1013.7
20260502181210 15 159 1.6 3.2 0.36 0.46 0.46 89 1013.8
20260502181203 15 159 1.6 3.2 0.36 0.46 0.46 89 1013.8
20260502181003 16 159 0.0 3.2 0.33 0.46 0.46 89 1013.9
20260502180803 16 162 0.0 3.2 0.30 0.43 0.43 89 1013.9
20260502180703 16 162 1.6 3.2 0.30 0.43 0.43 89 1013.9
20260502180503 16 162 1.6 3.2 0.30 0.43 0.43 88 1014.0
20260502180302 16 162 0.0 6.4 0.30 0.41 0.41 88 1014.1
20260502180210 16 162 1.6 6.4 0.23 0.36 0.36 85 13.9
20260502170302 20 160 3.2 9.7 0.00 0.13 0.13 83 1013.4
20260502170210 20 160 3.2 9.7 0.00 0.13 0.13 81 13.1
20260502170104 20 136 1.6 4.8 0.00 0.13 0.13 82 1013.4
20260502164210 20 78 0.0 1.6 0.00 0.13 0.13 80 13.4
20260502164203 20 78 0.0 1.6 0.00 0.13 0.13 83 1013.6
20260502164003 20 78 0.0 1.6 0.00 0.13 0.13 83 1013.7
20260502163903 20 78 0.0 3.2 0.00 0.13 0.13 83 1013.7
20260502163802 20 78 0.0 3.2 0.00 0.13 0.13 83 1013.7
20260502163702 20 78 1.6 3.2 0.00 0.13 0.13 82 1013.7
20260502163505 20 78 0.0 3.2 0.00 0.13 0.13 82 1013.7
20260502163303 20 78 1.6 3.2 0.00 0.13 0.13 82 1013.7
20260502163210 20 78 1.6 3.2 0.00 0.13 0.13 82 1013.7
20260502163103 20 78 1.6 3.2 0.00 0.13 0.13 82 1013.7
20260502162903 20 78 0.0 3.2 0.00 0.13 0.13 82 1013.8
20260502162503 20 78 1.6 3.2 0.00 0.13 0.13 82 1013.8
20260502162214 20 78 1.6 1.6 0.00 0.13 0.13 82 1013.9
20260502162209 20 78 1.6 3.2 0.00 0.13 0.13 82 1013.9
20260502162202 20 78 1.6 1.6 0.00 0.13 0.13 82 1013.9
20260502161902 20 78 0.0 1.6 0.00 0.13 0.13 82 1014.0
20260502161802 20 78 0.0 1.6 0.00 0.13 0.13 82 1014.0
20260502161603 20 78 0.0 1.6 0.00 0.13 0.13 81 1014.0
20260502161403 19 78 0.0 3.2 0.00 0.13 0.13 81 1013.9
20260502161303 20 78 0.0 3.2 0.00 0.13 0.13 81 1014.0
20260502161104 20 78 0.0 3.2 0.00 0.13 0.13 81 1014.1
20260502160902 20 78 0.0 3.2 0.00 0.13 0.13 82 1014.0
20260502160803 19 78 1.6 6.4 0.00 0.13 0.13 82 1014.0
20260502160702 19 78 3.2 6.4 0.00 0.13 0.13 82 1014.0
20260502160504 19 78 1.6 6.4 0.00 0.13 0.13 81 1014.0
20260502160303 19 78 3.2 6.4 0.00 0.13 0.13 80 1013.9
20260502160213 20 78 3.2 6.4 0.00 0.13 0.13 76 13.7
20260502160210 19 78 3.2 6.4 0.00 0.13 0.13 80 1014.0
20260502160203 19 78 1.6 4.8 0.00 0.13 0.13 80 1014.0
20260502152210 21 76 3.2 6.4 0.00 0.13 0.13 76 14.5
20260502152203 22 141 1.6 4.8 0.00 0.13 0.13 77 1014.7
20260502152004 22 103 3.2 4.8 0.00 0.13 0.13 76 1014.7
20260502151803 22 122 1.6 4.8 0.00 0.13 0.13 76 1014.7
20260502151603 22 84 4.8 4.8 0.00 0.13 0.13 75 1014.8
20260502151403 22 128 1.6 4.8 0.00 0.13 0.13 76 1014.8
20260502151210 22 148 1.6 8.0 0.00 0.13 0.13 76 1014.8
20260502151202 22 111 0.0 4.8 0.00 0.13 0.13 75 1014.8
20260502151003 22 71 4.8 4.8 0.00 0.13 0.13 75 1014.8
20260502150803 22 78 3.2 4.8 0.00 0.13 0.13 77 1014.8
20260502150603 21 84 1.6 4.8 0.00 0.13 0.13 76 1014.9
20260502150403 21 84 1.6 4.8 0.00 0.13 0.13 77 1014.9
20260502150210 21 74 4.8 6.4 0.00 0.13 0.13 76 14.7
20260502150202 21 74 3.2 4.8 0.00 0.13 0.13 79 1014.9
20260502130703 19 182 1.6 8.0 0.03 0.03 0.03 81 1016.4
20260502130504 19 182 1.6 9.7 0.03 0.03 0.03 80 1016.4
20260502130303 19 182 4.8 11.3 0.03 0.03 0.03 80 1016.5
20260502130210 19 182 1.6 11.3 0.03 0.03 0.03 80 1016.5
20260502130103 20 181 8.0 11.3 0.03 0.03 0.03 79 1016.4
20260502123803 22 194 3.2 11.3 0.00 0.00 0.00 62 1016.5
20260502123504 22 188 6.4 11.3 0.00 0.00 0.00 63 1016.6
20260502123402 22 185 0.0 9.7 0.00 0.00 0.00 62 1016.6
20260502123303 22 202 4.8 6.4 0.00 0.00 0.00 64 1016.6
20260502123210 22 200 4.8 6.4 0.00 0.00 0.00 64 1016.6
20260502123102 22 200 4.8 6.4 0.00 0.00 0.00 63 1016.6
20260502123005 22 235 4.8 4.8 0.00 0.00 0.00 61 1016.6
20260502122903 22 236 0.0 4.8 0.00 0.00 0.00 61 1016.6
20260502122703 22 300 0.0 3.2 0.00 0.00 0.00 61 1016.5
20260502122504 22 302 0.0 3.2 0.00 0.00 0.00 65 1016.5
20260502122305 22 292 1.6 3.2 0.00 0.00 0.00 64 1016.5
20260502122210 22 302 1.6 3.2 0.00 0.00 0.00 64 1016.5
20260502122203 22 302 0.0 3.2 0.00 0.00 0.00 64 1016.5
20260502122004 22 302 1.6 3.2 0.00 0.00 0.00 62 1016.5
20260502121702 22 302 1.6 4.8 0.00 0.00 0.00 60 1016.6
20260502121503 22 312 3.2 4.8 0.00 0.00 0.00 60 1016.6
20260502121403 22 312 1.6 4.8 0.00 0.00 0.00 59 1016.5
20260502121210 22 338 1.6 4.8 0.00 0.00 0.00 59 1016.5
20260502121208 23 338 1.6 4.8 0.00 0.00 0.00 58 16.3
20260502121203 22 338 3.2 6.4 0.00 0.00 0.00 60 1016.5
20260502121103 22 339 1.6 6.4 0.00 0.00 0.00 60 1016.5
20260502120903 22 339 3.2 6.4 0.00 0.00 0.00 58 1016.5
20260502120702 23 32 1.6 3.2 0.00 0.00 0.00 58 1016.5
20260502120504 23 32 0.0 4.8 0.00 0.00 0.00 58 1016.5
20260502120402 23 22 0.0 6.4 0.00 0.00 0.00 56 1016.6
20260502120209 23 32 0.0 4.8 0.00 0.00 0.00 56 1016.6
20260502120203 23 32 1.6 6.4 0.00 0.00 0.00 57 1016.6
20260502115903 23 32 3.2 6.4 0.00 0.00 0.00 56 1016.7
20260502115602 23 44 0.0 4.8 0.00 0.00 0.00 55 1016.8
20260502115305 23 40 3.2 4.8 0.00 0.00 0.00 58 1016.8
20260502115211 23 40 3.2 4.8 0.00 0.00 0.00 58 1016.8
20260502115209 24 40 1.6 6.4 0.00 0.00 0.00 54 1016.8
20260502115203 23 40 3.2 4.8 0.00 0.00 0.00 58 1016.8
20260502115103 24 40 3.2 6.4 0.00 0.00 0.00 54 1016.8
20260502114903 24 40 3.2 6.4 0.00 0.00 0.00 59 1016.8
20260502114505 23 63 4.8 6.4 0.00 0.00 0.00 57 1016.8
20260502114211 23 173 1.6 3.2 0.00 0.00 0.00 58 1016.9
20260502114209 23 173 1.6 3.2 0.00 0.00 0.00 57 1016.9
20260502114103 23 173 0.0 3.2 0.00 0.00 0.00 55 1016.9
20260502114002 23 180 1.6 3.2 0.00 0.00 0.00 57 1016.9
20260502113802 23 174 1.6 3.2 0.00 0.00 0.00 57 1016.9
20260502113703 23 174 0.0 3.2 0.00 0.00 0.00 58 1016.9
20260502113403 23 186 1.6 6.4 0.00 0.00 0.00 56 1017.0
20260502113302 23 186 1.6 8.0 0.00 0.00 0.00 59 1017.0
20260502113210 23 186 1.6 8.0 0.00 0.00 0.00 59 1017.0
20260502113208 24 186 1.6 6.4 0.00 0.00 0.00 54 16.8
20260502113005 23 186 4.8 8.0 0.00 0.00 0.00 54 1017.0
20260502112802 24 222 1.6 11.3 0.00 0.00 0.00 58 1017.1
20260502112603 23 204 11.3 11.3 0.00 0.00 0.00 55 1017.2
20260502112403 23 175 0.0 11.3 0.00 0.00 0.00 55 1017.1
20260502112305 23 229 3.2 6.4 0.00 0.00 0.00 55 1017.1
20260502112210 23 229 3.2 6.4 0.00 0.00 0.00 55 1017.2
20260502112208 23 198 4.8 8.0 0.00 0.00 0.00 56 16.9
20260502112004 23 225 3.2 8.0 0.00 0.00 0.00 54 1017.2
20260502111903 23 225 4.8 8.0 0.00 0.00 0.00 53 1017.3
20260502111703 23 195 8.0 11.3 0.00 0.00 0.00 54 1017.3
20260502111505 23 194 8.0 11.3 0.00 0.00 0.00 55 1017.3
20260502111404 23 209 6.4 11.3 0.00 0.00 0.00 55 1017.3
20260502111210 23 205 6.4 8.0 0.00 0.00 0.00 57 1017.4
20260502111208 23 207 8.0 11.3 0.00 0.00 0.00 57 17.1
20260502111203 23 205 6.4 8.0 0.00 0.00 0.00 57 1017.4
20260502111004 23 202 4.8 8.0 0.00 0.00 0.00 56 1017.3
20260502110903 23 205 0.0 8.0 0.00 0.00 0.00 55 1017.4
20260502110702 22 215 0.0 3.2 0.00 0.00 0.00 54 1017.4
20260502110504 22 215 3.2 4.8 0.00 0.00 0.00 55 1017.4
20260502110403 22 219 1.6 4.8 0.00 0.00 0.00 55 1017.4
20260502110303 23 229 3.2 4.8 0.00 0.00 0.00 56 1017.4
20260502110210 23 229 3.2 8.0 0.00 0.00 0.00 56 1017.4
20260502110208 22 229 1.6 8.0 0.00 0.00 0.00 56 17.2
20260502110005 22 219 0.0 4.8 0.00 0.00 0.00 58 1017.4
20260502105603 22 303 1.6 4.8 0.00 0.00 0.00 60 1017.5
20260502105403 22 180 1.6 9.7 0.00 0.00 0.00 57 1017.5
20260502105210 22 190 0.0 4.8 0.00 0.00 0.00 57 1017.5
20260502105208 22 190 0.0 8.0 0.00 0.00 0.00 57 17.3
20260502105203 22 192 6.4 9.7 0.00 0.00 0.00 56 1017.5
20260502104803 22 194 3.2 9.7 0.00 0.00 0.00 56 1017.6
20260502104504 22 209 3.2 6.4 0.00 0.00 0.00 56 1017.6
20260502104303 22 226 6.4 6.4 0.00 0.00 0.00 58 1017.6
20260502104210 22 189 4.8 8.0 0.00 0.00 0.00 57 1017.6
20260502104208 22 226 4.8 8.0 0.00 0.00 0.00 58 17.4
20260502104203 22 180 6.4 6.4 0.00 0.00 0.00 57 1017.6
20260502104105 22 200 4.8 6.4 0.00 0.00 0.00 55 1017.6
20260502103902 22 208 3.2 8.0 0.00 0.00 0.00 54 1017.6
20260502103803 22 208 4.8 8.0 0.00 0.00 0.00 56 1017.7
20260502103604 22 208 6.4 12.9 0.00 0.00 0.00 57 1017.7
20260502103504 22 214 6.4 12.9 0.00 0.00 0.00 57 1017.7
20260502103403 22 216 8.0 12.9 0.00 0.00 0.00 58 1017.8
20260502103302 22 211 8.0 12.9 0.00 0.00 0.00 57 1017.7
20260502103210 22 255 6.4 12.9 0.00 0.00 0.00 60 1017.7
20260502103208 22 211 6.4 12.9 0.00 0.00 0.00 60 17.5
20260502103005 21 306 0.0 12.9 0.00 0.00 0.00 60 1017.7
20260502102803 21 202 9.7 12.9 0.00 0.00 0.00 57 1017.8
20260502102603 21 217 8.0 12.9 0.00 0.00 0.00 56 1017.8
20260502102402 22 213 9.7 12.9 0.00 0.00 0.00 56 1017.8
20260502102305 22 209 4.8 12.9 0.00 0.00 0.00 57 1017.9
20260502102005 21 258 3.2 11.3 0.00 0.00 0.00 59 1017.9
20260502101902 21 229 4.8 9.7 0.00 0.00 0.00 56 1017.9
20260502101803 21 225 0.0 9.7 0.00 0.00 0.00 57 1017.9
20260502101603 21 253 0.0 8.0 0.00 0.00 0.00 56 1017.9
20260502101503 21 292 4.8 11.3 0.00 0.00 0.00 57 1017.9
20260502101302 21 273 4.8 11.3 0.00 0.00 0.00 57 1017.9
20260502101004 21 275 3.2 16.1 0.00 0.00 0.00 58 1017.9
20260502100802 21 289 9.7 16.1 0.00 0.00 0.00 57 1018.0
20260502100402 21 253 4.8 11.3 0.00 0.00 0.00 57 1018.0
20260502100303 21 279 6.4 11.3 0.00 0.00 0.00 56 1018.0
20260502100210 21 260 4.8 11.3 0.00 0.00 0.00 57 1018.0
20260502091504 20 208 1.6 6.4 0.00 0.00 0.00 59 1018.5
20260502091210 21 208 3.2 8.0 0.00 0.00 0.00 59 1018.5
20260502090212 21 239 3.2 6.4 0.00 0.00 0.00 62 1018.5
20260502090210 20 275 3.2 6.4 0.00 0.00 0.00 59 1018.5
20260502071212 14 85 1.6 3.2 0.00 0.00 0.00 74 1018.8
20260502071210 14 85 0.0 1.6 0.00 0.00 0.00 74 1018.9
20260502063212 12 85 0.0 4.8 0.00 0.00 0.00 77 1018.8
20260502062212 12 85 1.6 4.8 0.00 0.00 0.00 74 1018.8
20260502061702 12 85 1.6 1.6 0.00 0.00 0.00 74 1018.8
20260502061504 12 85 0.0 1.6 0.00 0.00 0.00 74 1018.8
20260502061403 12 85 1.6 1.6 0.00 0.00 0.00 74 1018.8
20260502061212 12 85 0.0 3.2 0.00 0.00 0.00 74 1018.8
20260502061210 12 85 1.6 1.6 0.00 0.00 0.00 74 1018.8
20260502061104 12 85 0.0 1.6 0.00 0.00 0.00 74 1018.8
20260502061005 12 85 0.0 1.6 0.00 0.00 0.00 75 1018.8
20260502060803 12 85 0.0 1.6 0.00 0.00 0.00 74 1018.7
20260502060702 11 85 0.0 1.6 0.00 0.00 0.00 74 1018.7
20260502060603 11 85 0.0 1.6 0.00 0.00 0.00 75 1018.7
20260502060504 11 85 0.0 1.6 0.00 0.00 0.00 75 1018.7
20260502060402 11 85 0.0 1.6 0.00 0.00 0.00 74 1018.7
20260502060212 11 85 0.0 3.2 0.00 0.00 0.00 74 1018.7
20260502060210 11 85 1.6 3.2 0.00 0.00 0.00 74 18.4
20260502060202 11 85 1.6 1.6 0.00 0.00 0.00 75 1018.7
20260502055903 11 85 0.0 4.8 0.00 0.00 0.00 75 1018.8
20260502055803 11 85 1.6 4.8 0.00 0.00 0.00 76 1018.8
20260502055702 11 85 3.2 4.8 0.00 0.00 0.00 76 1018.8
20260502055504 11 142 0.0 3.2 0.00 0.00 0.00 76 1018.8
20260502055403 11 142 1.6 3.2 0.00 0.00 0.00 76 1018.8
20260502055212 11 142 1.6 3.2 0.00 0.00 0.00 76 1018.8
20260502055210 11 142 0.0 3.2 0.00 0.00 0.00 77 1018.8
20260502055204 11 142 0.0 3.2 0.00 0.00 0.00 77 1018.8
20260502055103 11 142 0.0 1.6 0.00 0.00 0.00 76 1018.8
20260502054903 11 142 0.0 1.6 0.00 0.00 0.00 76 1018.9
20260502054802 11 142 1.6 3.2 0.00 0.00 0.00 75 1018.9
20260502054504 11 142 1.6 3.2 0.00 0.00 0.00 75 1018.8
20260502054403 11 142 0.0 3.2 0.00 0.00 0.00 75 1018.8
20260502054211 11 142 0.0 1.6 0.00 0.00 0.00 75 1018.9
20260502054203 11 142 0.0 1.6 0.00 0.00 0.00 75 1018.9
20260502054004 11 142 0.0 3.2 0.00 0.00 0.00 74 1018.8
20260502053702 11 142 1.6 3.2 0.00 0.00 0.00 74 1018.7
20260502053505 11 142 0.0 1.6 0.00 0.00 0.00 74 1018.8
20260502053405 11 142 0.0 3.2 0.00 0.00 0.00 74 1018.8
20260502053203 10 142 0.0 3.2 0.00 0.00 0.00 73 1018.8
20260502053103 10 142 1.6 3.2 0.00 0.00 0.00 74 1018.8
20260502052903 10 142 1.6 3.2 0.00 0.00 0.00 74 1018.9
20260502052808 10 142 0.0 3.2 0.00 0.00 0.00 74 1018.9
20260502052703 10 142 0.0 3.2 0.00 0.00 0.00 74 1018.9
20260502052504 10 142 1.6 3.2 0.00 0.00 0.00 74 1018.8
20260502052404 10 142 1.6 3.2 0.00 0.00 0.00 74 1018.8
20260502052305 10 142 0.0 3.2 0.00 0.00 0.00 74 1018.8
20260502052211 10 142 1.6 3.2 0.00 0.00 0.00 74 1018.8
20260502052003 10 83 0.0 3.2 0.00 0.00 0.00 74 1018.7
20260502051803 10 83 1.6 4.8 0.00 0.00 0.00 73 1018.6
20260502051703 10 83 1.6 4.8 0.00 0.00 0.00 74 1018.6
20260502051603 10 84 3.2 4.8 0.00 0.00 0.00 74 1018.6
20260502051402 10 86 1.6 4.8 0.00 0.00 0.00 75 1018.5
20260502051302 10 86 3.2 4.8 0.00 0.00 0.00 76 1018.5
20260502051202 10 103 3.2 4.8 0.00 0.00 0.00 76 1018.5
20260502051006 9 103 3.2 4.8 0.00 0.00 0.00 76 1018.5
20260502050903 9 103 1.6 4.8 0.00 0.00 0.00 76 1018.6
20260502050803 9 105 1.6 3.2 0.00 0.00 0.00 76 1018.6
20260502050603 8 105 1.6 3.2 0.00 0.00 0.00 76 1018.6
20260502050504 8 145 1.6 3.2 0.00 0.00 0.00 78 1018.6
20260502050211 8 145 1.6 3.2 0.00 0.00 0.00 79 1018.6
20260502050203 8 147 1.6 3.2 0.00 0.00 0.00 78 1018.7
20260502050005 8 148 0.0 3.2 0.00 0.00 0.00 78 1018.7
20260502045903 8 135 1.6 4.8 0.00 0.00 0.00 78 1018.7
20260502045602 8 144 3.2 4.8 0.00 0.00 0.00 78 1018.7
20260502045504 8 144 3.2 4.8 0.00 0.00 0.00 78 1018.7
20260502045305 8 144 0.0 4.8 0.00 0.00 0.00 78 1018.7
20260502045212 8 144 3.2 4.8 0.00 0.00 0.00 78 1018.8
20260502045210 8 144 1.6 4.8 0.00 0.00 0.00 75 18.5
20260502045103 8 144 1.6 3.2 0.00 0.00 0.00 77 1018.7
20260502044903 8 144 0.0 4.8 0.00 0.00 0.00 78 1018.7
20260502044803 8 144 1.6 4.8 0.00 0.00 0.00 78 1018.7
20260502044604 8 144 1.6 4.8 0.00 0.00 0.00 78 1018.7
20260502044505 8 147 1.6 4.8 0.00 0.00 0.00 77 1018.6
20260502044302 8 140 3.2 4.8 0.00 0.00 0.00 76 1018.7
20260502044211 8 140 3.2 4.8 0.00 0.00 0.00 76 1018.7
20260502044202 8 138 1.6 3.2 0.00 0.00 0.00 76 1018.7
20260502044003 8 138 3.2 3.2 0.00 0.00 0.00 76 1018.7
20260502043903 8 138 1.6 3.2 0.00 0.00 0.00 76 1018.7
20260502043802 8 134 0.0 3.2 0.00 0.00 0.00 76 1018.8
20260502043703 8 134 1.6 3.2 0.00 0.00 0.00 76 1018.7
20260502043603 8 134 0.0 3.2 0.00 0.00 0.00 76 1018.7
20260502043504 8 135 1.6 3.2 0.00 0.00 0.00 76 1018.7
20260502043211 8 135 0.0 3.2 0.00 0.00 0.00 75 1018.7
20260502043005 8 135 1.6 3.2 0.00 0.00 0.00 75 1018.8
20260502042803 8 135 1.6 3.2 0.00 0.00 0.00 76 1018.8
20260502042603 8 135 1.6 3.2 0.00 0.00 0.00 76 1018.9
20260502042505 8 135 0.0 3.2 0.00 0.00 0.00 76 1018.8
20260502042403 8 135 1.6 4.8 0.00 0.00 0.00 76 1018.8
20260502042211 8 135 1.6 4.8 0.00 0.00 0.00 76 1018.8
20260502042203 8 135 1.6 4.8 0.00 0.00 0.00 76 1018.8
20260502042103 8 134 1.6 4.8 0.00 0.00 0.00 76 1018.9
20260502041703 8 108 0.0 1.6 0.00 0.00 0.00 77 1018.7
20260502041504 8 108 0.0 1.6 0.00 0.00 0.00 77 1018.6
20260502041403 8 108 1.6 3.2 0.00 0.00 0.00 77 1018.7
20260502041211 8 108 1.6 3.2 0.00 0.00 0.00 77 1018.6
20260502041102 8 108 1.6 3.2 0.00 0.00 0.00 77 1018.6
20260502041004 7 108 1.6 3.2 0.00 0.00 0.00 77 1018.6
20260502040902 7 108 0.0 1.6 0.00 0.00 0.00 78 1018.7
20260502040703 7 108 0.0 1.6 0.00 0.00 0.00 78 1018.7
20260502040603 7 108 1.6 3.2 0.00 0.00 0.00 78 1018.7
20260502040504 7 108 0.0 3.2 0.00 0.00 0.00 78 1018.7
20260502040303 7 108 1.6 3.2 0.00 0.00 0.00 78 1018.7
20260502040211 7 108 1.6 3.2 0.00 0.00 0.00 78 1018.7
20260502040202 7 108 3.2 3.2 0.00 0.00 0.00 78 1018.7
20260502040006 7 151 0.0 1.6 0.00 0.00 0.00 78 1018.7
20260502035803 7 151 0.0 3.2 0.00 0.00 0.00 78 1018.7
20260502035602 7 151 1.6 3.2 0.00 0.00 0.00 78 1018.7
20260502035503 7 151 0.0 3.2 0.00 0.00 0.00 78 1018.7
20260502035402 7 151 0.0 1.6 0.00 0.00 0.00 78 1018.8
20260502035211 7 151 0.0 1.6 0.00 0.00 0.00 78 1018.8
20260502034803 7 151 0.0 3.2 0.00 0.00 0.00 78 1018.8
20260502034703 7 147 1.6 1.6 0.00 0.00 0.00 78 1018.8
20260502034603 7 147 0.0 1.6 0.00 0.00 0.00 78 1018.8
20260502034505 7 147 0.0 1.6 0.00 0.00 0.00 79 1018.8
20260502034402 7 147 0.0 1.6 0.00 0.00 0.00 79 1018.9
20260502034303 7 147 0.0 1.6 0.00 0.00 0.00 79 1018.9
20260502034211 7 147 0.0 1.6 0.00 0.00 0.00 79 1018.9
20260502033604 7 147 0.0 1.6 0.00 0.00 0.00 80 1018.8
20260502033403 7 147 0.0 4.8 0.00 0.00 0.00 80 1018.8
20260502033211 7 147 0.0 6.4 0.00 0.00 0.00 80 1018.9
20260502033202 7 147 1.6 6.4 0.00 0.00 0.00 80 1018.9
20260502033004 7 150 1.6 6.4 0.00 0.00 0.00 80 1018.9
20260502032803 7 151 1.6 6.4 0.00 0.00 0.00 79 1018.9
20260502032602 7 144 1.6 3.2 0.00 0.00 0.00 80 1018.9
20260502032211 7 145 0.0 4.8 0.00 0.00 0.00 80 1019.0
20260502032103 7 145 0.0 4.8 0.00 0.00 0.00 80 1019.0
20260502032005 7 145 1.6 4.8 0.00 0.00 0.00 79 1018.9
20260502031903 7 145 3.2 4.8 0.00 0.00 0.00 79 1018.9
20260502031803 7 145 1.6 4.8 0.00 0.00 0.00 79 1018.9
20260502031602 7 101 1.6 4.8 0.00 0.00 0.00 79 1018.9
20260502031504 7 101 3.2 4.8 0.00 0.00 0.00 79 1018.9
20260502031403 7 101 1.6 4.8 0.00 0.00 0.00 79 1018.9
20260502031302 7 101 0.0 3.2 0.00 0.00 0.00 79 1018.9
20260502031211 7 101 0.0 1.6 0.00 0.00 0.00 79 1018.9
20260502031203 7 101 0.0 1.6 0.00 0.00 0.00 79 1018.9
20260502031005 7 101 0.0 3.2 0.00 0.00 0.00 79 1019.0
20260502030802 7 101 3.2 3.2 0.00 0.00 0.00 80 1018.9
20260502030506 7 101 3.2 3.2 0.00 0.00 0.00 80 1019.0
20260502030402 7 101 1.6 3.2 0.00 0.00 0.00 80 1019.0
20260502030203 7 101 1.6 3.2 0.00 0.00 0.00 79 1019.0
20260502025903 7 101 0.0 3.2 0.00 0.00 0.00 79 1019.0
20260502025603 7 101 1.6 3.2 0.00 0.00 0.00 79 1019.0
20260502025504 7 101 1.6 3.2 0.00 0.00 0.00 78 1019.1
20260502025302 7 113 3.2 3.2 0.00 0.00 0.00 78 1019.1
20260502025210 7 113 1.6 3.2 0.00 0.00 0.00 78 1019.1
20260502025202 7 84 1.6 4.8 0.00 0.00 0.00 77 1019.1
20260502025103 7 84 0.0 4.8 0.00 0.00 0.00 77 1019.2
20260502025004 7 84 1.6 4.8 0.00 0.00 0.00 77 1019.2
20260502024902 7 82 1.6 4.8 0.00 0.00 0.00 77 1019.2
20260502024702 7 82 0.0 3.2 0.00 0.00 0.00 77 1019.2
20260502024302 7 82 1.6 3.2 0.00 0.00 0.00 77 1019.2
20260502024210 7 82 1.6 3.2 0.00 0.00 0.00 75 19.0
20260502024103 7 88 1.6 3.2 0.00 0.00 0.00 77 1019.2
20260502024004 7 88 0.0 4.8 0.00 0.00 0.00 77 1019.2
20260502023903 7 88 1.6 4.8 0.00 0.00 0.00 77 1019.3
20260502023504 7 88 1.6 4.8 0.00 0.00 0.00 76 1019.2
20260502023402 8 88 1.6 4.8 0.00 0.00 0.00 76 1019.2
20260502023211 8 90 1.6 4.8 0.00 0.00 0.00 74 19.0
20260502023203 8 90 1.6 4.8 0.00 0.00 0.00 76 1019.3
20260502023005 8 90 3.2 4.8 0.00 0.00 0.00 75 1019.3
20260502022903 8 90 0.0 4.8 0.00 0.00 0.00 75 1019.3
20260502022403 8 90 1.6 3.2 0.00 0.00 0.00 75 1019.3
20260502022306 8 90 0.0 1.6 0.00 0.00 0.00 75 1019.3
20260502022211 8 90 1.6 1.6 0.00 0.00 0.00 73 19.1
20260502022102 8 90 0.0 1.6 0.00 0.00 0.00 74 1019.3
20260502022004 8 90 1.6 1.6 0.00 0.00 0.00 75 1019.3
20260502021803 8 90 0.0 1.6 0.00 0.00 0.00 75 1019.3
20260502021504 8 90 0.0 1.6 0.00 0.00 0.00 74 1019.3
20260502021403 8 90 1.6 1.6 0.00 0.00 0.00 73 1019.4
20260502021210 8 90 1.6 1.6 0.00 0.00 0.00 73 1019.4
20260502021004 8 89 1.6 1.6 0.00 0.00 0.00 73 1019.4
20260502020803 8 89 1.6 1.6 0.00 0.00 0.00 72 1019.5
20260502020403 9 89 0.0 1.6 0.00 0.00 0.00 72 1019.5
20260502020211 8 89 0.0 1.6 0.00 0.00 0.00 72 19.3
20260502020203 9 89 0.0 0.0 0.00 0.00 0.00 71 1019.5
20260502020005 9 88 0.0 0.0 0.00 0.00 0.00 71 1019.5
20260502015904 9 88 0.0 1.6 0.00 0.00 0.00 72 1019.6
20260502015803 9 88 0.0 4.8 0.00 0.00 0.00 72 1019.6
20260502015603 9 88 1.6 4.8 0.00 0.00 0.00 72 1019.6
20260502015505 9 88 3.2 4.8 0.00 0.00 0.00 72 1019.5
20260502015403 8 88 3.2 4.8 0.00 0.00 0.00 72 1019.6
20260502015211 8 89 1.6 3.2 0.00 0.00 0.00 72 19.4
20260502015202 8 89 1.6 3.2 0.00 0.00 0.00 72 1019.6
20260502015103 8 89 0.0 1.6 0.00 0.00 0.00 72 1019.6
20260502015005 8 89 1.6 1.6 0.00 0.00 0.00 72 1019.6
20260502014803 8 89 0.0 1.6 0.00 0.00 0.00 72 1019.6
20260502014603 8 89 0.0 1.6 0.00 0.00 0.00 73 1019.6
20260502014403 8 89 0.0 0.0 0.00 0.00 0.00 72 1019.6
20260502014303 8 89 0.0 0.0 0.00 0.00 0.00 73 1019.6
20260502014003 8 89 0.0 0.0 0.00 0.00 0.00 72 1019.6
20260502013504 9 89 0.0 1.6 0.00 0.00 0.00 72 1019.6
20260502013403 9 89 0.0 1.6 0.00 0.00 0.00 73 1019.6
20260502013302 8 89 0.0 1.6 0.00 0.00 0.00 73 1019.6
20260502013211 8 89 0.0 1.6 0.00 0.00 0.00 72 19.4
20260502013202 8 89 0.0 3.2 0.00 0.00 0.00 73 1019.6
20260502013005 8 89 0.0 3.2 0.00 0.00 0.00 74 1019.6
20260502012902 8 89 3.2 3.2 0.00 0.00 0.00 74 1019.6
20260502012702 8 89 0.0 3.2 0.00 0.00 0.00 74 1019.6
20260502012503 8 89 1.6 3.2 0.00 0.00 0.00 74 1019.6
20260502012402 8 89 1.6 3.2 0.00 0.00 0.00 74 1019.5
20260502012211 8 89 3.2 3.2 0.00 0.00 0.00 72 19.4
20260502012103 8 89 1.6 3.2 0.00 0.00 0.00 74 1019.6
20260502011903 8 89 1.6 4.8 0.00 0.00 0.00 73 1019.6
20260502011702 9 89 3.2 4.8 0.00 0.00 0.00 73 1019.6
20260502011603 9 89 1.6 4.8 0.00 0.00 0.00 73 1019.6
20260502011505 9 89 3.2 4.8 0.00 0.00 0.00 72 1019.6
20260502011402 9 92 1.6 4.8 0.00 0.00 0.00 72 1019.6
20260502011211 9 103 1.6 3.2 0.00 0.00 0.00 71 19.5
20260502011203 9 103 1.6 3.2 0.00 0.00 0.00 72 1019.6
20260502011103 9 103 3.2 3.2 0.00 0.00 0.00 72 1019.6
20260502011004 9 103 1.6 3.2 0.00 0.00 0.00 72 1019.6
20260502010703 9 103 1.6 3.2 0.00 0.00 0.00 71 1019.6
20260502010505 9 103 3.2 3.2 0.00 0.00 0.00 71 1019.6
20260502010403 9 103 1.6 3.2 0.00 0.00 0.00 71 1019.6
20260502010303 9 103 3.2 3.2 0.00 0.00 0.00 71 1019.6
20260502010210 9 103 1.6 3.2 0.00 0.00 0.00 71 1019.6
20260502010204 9 103 0.0 3.2 0.00 0.00 0.00 71 1019.6
20260502005803 9 103 1.6 3.2 0.00 0.00 0.00 72 1019.6
20260502005703 9 103 1.6 4.8 0.00 0.00 0.00 71 1019.6
20260502005603 9 103 3.2 4.8 0.00 0.00 0.00 71 1019.6
20260502005504 9 103 1.6 4.8 0.00 0.00 0.00 71 1019.7
20260502005404 9 103 3.2 4.8 0.00 0.00 0.00 71 1019.6
20260502005305 10 103 1.6 4.8 0.00 0.00 0.00 70 1019.6
20260502005102 10 108 1.6 4.8 0.00 0.00 0.00 70 1019.6
20260502005005 10 108 1.6 4.8 0.00 0.00 0.00 70 1019.7
20260502004903 10 108 3.2 4.8 0.00 0.00 0.00 70 1019.7
20260502004803 10 108 1.6 4.8 0.00 0.00 0.00 70 1019.7
20260502004702 10 108 1.6 3.2 0.00 0.00 0.00 70 1019.7
20260502004603 10 142 1.6 3.2 0.00 0.00 0.00 70 1019.7
20260502004504 10 143 1.6 3.2 0.00 0.00 0.00 69 1019.7
20260502004402 10 143 1.6 3.2 0.00 0.00 0.00 70 1019.7
20260502004210 10 143 1.6 3.2 0.00 0.00 0.00 68 19.5
20260502004202 10 143 1.6 3.2 0.00 0.00 0.00 69 1019.7
20260502004103 10 143 1.6 3.2 0.00 0.00 0.00 69 1019.8
20260502004004 10 143 0.0 1.6 0.00 0.00 0.00 69 1019.7
20260502003802 10 143 0.0 3.2 0.00 0.00 0.00 67 1019.8
20260502003703 10 143 0.0 3.2 0.00 0.00 0.00 66 1019.9
20260502003603 10 143 1.6 3.2 0.00 0.00 0.00 66 1019.9
20260502003504 10 143 1.6 3.2 0.00 0.00 0.00 66 1019.8
20260502003403 10 143 0.0 1.6 0.00 0.00 0.00 66 1019.8
20260502003302 11 143 0.0 1.6 0.00 0.00 0.00 66 1019.9
20260502003210 11 143 1.6 1.6 0.00 0.00 0.00 66 1019.9
20260502002902 11 143 0.0 1.6 0.00 0.00 0.00 65 1019.9
20260502002803 11 143 1.6 1.6 0.00 0.00 0.00 65 1019.9
20260502002403 11 143 0.0 1.6 0.00 0.00 0.00 65 1019.9
20260502002305 11 143 1.6 1.6 0.00 0.00 0.00 65 1019.9
20260502002210 11 143 0.0 1.6 0.00 0.00 0.00 65 1019.9
20260502002203 11 143 0.0 1.6 0.00 0.00 0.00 65 1019.9
20260502001703 11 143 1.6 3.2 0.00 0.00 0.00 64 1020.0
20260502001602 11 143 1.6 4.8 0.00 0.00 0.00 64 1020.1
20260502001505 11 143 0.0 4.8 0.00 0.00 0.00 64 1020.1
20260502001404 11 143 1.6 4.8 0.00 0.00 0.00 64 1020.1
20260502001302 11 143 3.2 4.8 0.00 0.00 0.00 64 1020.1
20260502001202 11 143 3.2 4.8 0.00 0.00 0.00 63 1020.1
20260502001004 11 147 1.6 4.8 0.00 0.00 0.00 63 1020.1
20260502000903 11 144 1.6 4.8 0.00 0.00 0.00 63 1020.1
20260502000802 11 147 1.6 4.8 0.00 0.00 0.00 63 1020.2
20260502000603 11 147 1.6 1.6 0.00 0.00 0.00 62 1020.2
20260502000403 11 147 0.0 1.6 0.00 0.00 0.00 62 1020.3
20260502000303 11 147 0.0 1.6 0.00 0.00 0.00 63 1020.3
20260502000211 11 147 0.0 1.6 0.00 0.00 0.00 63 1020.3
20260502000204 11 147 0.0 1.6 0.00 0.00 0.00 63 1020.4
20260502000005 11 147 0.0 1.6 0.00 0.00 0.00 63 1020.4
20260501235902 11 147 0.0 3.2 0.00 0.00 0.00 64 1020.4
20260501235803 11 147 0.0 3.2 0.00 0.00 0.00 65 1020.4
20260501235603 10 147 1.6 3.2 0.00 0.00 0.00 66 1020.4
20260501235403 10 146 1.6 3.2 0.00 0.00 0.00 67 1020.4
20260501235305 10 147 1.6 4.8 0.00 0.00 0.00 68 1020.4
20260501235210 10 147 1.6 4.8 0.00 0.00 0.00 67 20.2
20260501235203 10 147 1.6 6.4 0.00 0.00 0.00 68 1020.4
20260501235004 10 150 3.2 6.4 0.00 0.00 0.00 69 1020.4
20260501234802 10 150 1.6 6.4 0.00 0.00 0.00 69 1020.4
20260501234505 10 159 3.2 6.4 0.00 0.00 0.00 69 1020.4
20260501234403 10 159 4.8 6.4 0.00 0.00 0.00 68 1020.5
20260501234211 10 161 4.8 6.4 0.00 0.00 0.00 67 1020.5
20260501234202 10 155 1.6 6.4 0.00 0.00 0.00 66 1020.5
20260501234102 10 157 3.2 6.4 0.00 0.00 0.00 66 1020.5
20260501234002 11 157 3.2 6.4 0.00 0.00 0.00 65 1020.5
20260501233908 11 139 3.2 6.4 0.00 0.00 0.00 65 1020.5
20260501233802 11 162 3.2 6.4 0.00 0.00 0.00 64 1020.5
20260501233503 11 147 1.6 8.0 0.00 0.00 0.00 63 1020.5
20260501233403 11 157 3.2 8.0 0.00 0.00 0.00 63 1020.5
20260501233303 11 160 1.6 8.0 0.00 0.00 0.00 62 1020.5
20260501233211 11 160 1.6 8.0 0.00 0.00 0.00 62 1020.5
20260501233203 11 162 1.6 4.8 0.00 0.00 0.00 62 1020.6
20260501233104 11 164 3.2 4.8 0.00 0.00 0.00 61 1020.5
20260501233005 11 164 1.6 6.4 0.00 0.00 0.00 61 1020.6
20260501232903 11 166 0.0 6.4 0.00 0.00 0.00 61 1020.6
20260501232703 11 146 3.2 8.0 0.00 0.00 0.00 61 1020.6
20260501232604 11 157 1.6 8.0 0.00 0.00 0.00 61 1020.6
20260501232504 11 158 1.6 8.0 0.00 0.00 0.00 61 1020.7
20260501232403 11 159 3.2 8.0 0.00 0.00 0.00 61 1020.7
20260501232305 11 159 0.0 8.0 0.00 0.00 0.00 61 1020.7
20260501232211 11 159 1.6 8.0 0.00 0.00 0.00 61 1020.7
20260501232003 11 162 1.6 6.4 0.00 0.00 0.00 62 1020.7
20260501231903 11 151 1.6 4.8 0.00 0.00 0.00 62 1020.7
20260501231703 11 153 1.6 4.8 0.00 0.00 0.00 63 1020.7
20260501231604 11 159 1.6 4.8 0.00 0.00 0.00 63 1020.7
20260501231504 11 155 1.6 4.8 0.00 0.00 0.00 63 1020.7
20260501231303 11 158 3.2 4.8 0.00 0.00 0.00 63 1020.7
20260501231210 11 158 3.2 4.8 0.00 0.00 0.00 63 1020.7
20260501231203 11 155 1.6 4.8 0.00 0.00 0.00 63 1020.7
20260501231005 11 147 1.6 4.8 0.00 0.00 0.00 63 1020.7
20260501230903 11 134 1.6 4.8 0.00 0.00 0.00 63 1020.7
20260501230603 11 144 1.6 4.8 0.00 0.00 0.00 63 1020.7
20260501230503 11 159 1.6 3.2 0.00 0.00 0.00 63 1020.7
20260501230402 11 161 1.6 6.4 0.00 0.00 0.00 63 1020.7
20260501230303 11 159 1.6 6.4 0.00 0.00 0.00 63 1020.8
20260501230210 12 148 1.6 4.8 0.00 0.00 0.00 62 20.6
20260501230006 12 143 3.2 6.4 0.00 0.00 0.00 62 1020.8
20260501225703 12 132 1.6 6.4 0.00 0.00 0.00 61 1020.8
20260501225504 12 135 3.2 6.4 0.00 0.00 0.00 60 1020.8
20260501225403 12 153 4.8 9.7 0.00 0.00 0.00 60 1020.8
20260501225305 12 168 3.2 9.7 0.00 0.00 0.00 59 1020.8
20260501225213 12 168 4.8 9.7 0.00 0.00 0.00 59 1020.8
20260501225210 12 168 3.2 9.7 0.00 0.00 0.00 60 20.6
20260501225103 12 130 6.4 9.7 0.00 0.00 0.00 59 1020.8
20260501224903 12 193 6.4 9.7 0.00 0.00 0.00 59 1020.8
20260501224703 12 159 8.0 9.7 0.00 0.00 0.00 58 1020.9
20260501224603 12 178 6.4 9.7 0.00 0.00 0.00 58 1020.8
20260501224504 12 183 6.4 11.3 0.00 0.00 0.00 58 1020.8
20260501224307 13 141 6.4 11.3 0.00 0.00 0.00 58 1020.8
20260501224203 12 183 8.0 11.3 0.00 0.00 0.00 58 1020.8
20260501224103 12 182 8.0 11.3 0.00 0.00 0.00 58 1020.8
20260501224003 12 161 8.0 11.3 0.00 0.00 0.00 58 1020.8
20260501223803 12 167 6.4 9.7 0.00 0.00 0.00 59 1020.8
20260501223702 12 186 6.4 9.7 0.00 0.00 0.00 59 1020.8
20260501223603 12 202 4.8 9.7 0.00 0.00 0.00 59 1020.7
20260501223504 12 161 6.4 9.7 0.00 0.00 0.00 59 1020.8
20260501223402 12 172 4.8 9.7 0.00 0.00 0.00 59 1020.8
20260501223302 12 171 4.8 9.7 0.00 0.00 0.00 59 1020.8
20260501223210 12 171 4.8 9.7 0.00 0.00 0.00 60 20.6
20260501223203 12 163 4.8 9.7 0.00 0.00 0.00 60 1020.7
20260501222805 12 143 6.4 11.3 0.00 0.00 0.00 60 1020.8
20260501222703 12 173 4.8 11.3 0.00 0.00 0.00 60 1020.8
20260501222603 12 161 3.2 9.7 0.00 0.00 0.00 60 1020.7
20260501222503 12 150 1.6 6.4 0.00 0.00 0.00 60 1020.8
20260501222403 12 153 0.0 6.4 0.00 0.00 0.00 60 1020.7
20260501222210 12 180 3.2 8.0 0.00 0.00 0.00 60 20.6
20260501222202 12 157 3.2 6.4 0.00 0.00 0.00 61 1020.8
20260501222103 12 115 1.6 6.4 0.00 0.00 0.00 60 1020.8
20260501222004 12 140 1.6 6.4 0.00 0.00 0.00 60 1020.8
20260501221904 12 139 1.6 6.4 0.00 0.00 0.00 60 1020.8
20260501221702 12 200 1.6 6.4 0.00 0.00 0.00 59 1020.8
20260501221603 12 143 3.2 6.4 0.00 0.00 0.00 59 1020.8
20260501221504 13 136 3.2 8.0 0.00 0.00 0.00 59 1020.8
20260501221302 13 188 3.2 9.7 0.00 0.00 0.00 58 1020.8
20260501221211 13 188 3.2 9.7 0.00 0.00 0.00 58 1020.8
20260501221202 13 140 3.2 9.7 0.00 0.00 0.00 58 1020.8
20260501221103 13 157 4.8 9.7 0.00 0.00 0.00 58 1020.8
20260501221004 13 187 4.8 9.7 0.00 0.00 0.00 58 1020.8
20260501220903 13 165 3.2 9.7 0.00 0.00 0.00 58 1020.8
20260501220802 13 134 4.8 8.0 0.00 0.00 0.00 58 1020.8
20260501220702 13 173 4.8 11.3 0.00 0.00 0.00 58 1020.8
20260501220603 13 175 4.8 11.3 0.00 0.00 0.00 58 1020.8
20260501220503 13 190 6.4 11.3 0.00 0.00 0.00 58 1020.8
20260501220402 13 174 6.4 11.3 0.00 0.00 0.00 58 1020.8
20260501220303 13 180 6.4 11.3 0.00 0.00 0.00 59 1020.8
20260501220006 13 150 4.8 9.7 0.00 0.00 0.00 59 1020.7
20260501215902 13 143 4.8 8.0 0.00 0.00 0.00 60 1020.7
20260501215703 13 183 0.0 8.0 0.00 0.00 0.00 60 1020.8
20260501215305 12 150 3.2 6.4 0.00 0.00 0.00 60 1020.7
20260501215213 12 158 3.2 6.4 0.00 0.00 0.00 60 20.6
20260501215210 12 158 3.2 6.4 0.00 0.00 0.00 60 1020.7
20260501215202 12 192 3.2 6.4 0.00 0.00 0.00 60 1020.8
20260501214902 13 173 3.2 4.8 0.00 0.00 0.00 59 1020.8
20260501214702 13 212 0.0 8.0 0.00 0.00 0.00 59 1020.8